User: anonymous   Login
Location: Cherry Springs State Park
(41.6616°N, 77.8240°W)
Time: 23:21:28
(UTC-04:00)
Language:

Cosmos 1437 - Orbit

View from above orbital plane
View from above orbital plane
View from above satellite
View from above satellite

Ground track
Ground track

The orbit data is extracted from the following two-line orbital elements,

1 13770U 83003A   16120.53152482  .00006852  00000-0  13932-3 0  9994
2 13770  81.1586 294.4643 0006881 273.2683  86.7774 15.46093504822496
Epoch (UTC): 29 April 2016 12:45:23
Eccentricity: 0.0006881
inclination: 81.1586°
perigee height: 423 km
apogee height: 433 km
right ascension of ascending node: 294.4643°
argument of perigee: 273.2683°
revolutions per day: 15.46093504
mean anomaly at epoch: 86.7774°
orbit number at epoch: 82249

The dashed part of the orbit path shows where the satellite is in the earth's shadow,  

DLR